time_stamp(utc),avg(mph),gust(mph),direction(deg),12m_air_temp(f),sonic_u(cm/s),sonic_v(cm/s),sonic_w(cm/s),pressure,2m_air_temp(f),pyranometer(W/m^2)
"2020-02-16 00:04:35+00",9.7,11.7,,29.2,-155,-384,9,1032.02,28.2,0
"2020-02-16 00:09:35+00",7.3,8.3,,29.1,-124,-292,4,1032.03,28.3,0
"2020-02-16 00:14:35+00",8.0,9.0,,29.2,-169,-301,1,1032.11,28.2,0
"2020-02-16 00:19:35+00",7.1,8.1,,29.3,-181,-258,-2,1032.14,28.2,0
"2020-02-16 00:24:35+00",6.8,7.8,,29.3,-202,-230,1,1032.18,28.1,0
"2020-02-16 00:29:35+00",8.2,9.2,,29.4,-262,-238,3,1032.24,28.1,0
"2020-02-16 00:34:35+00",7.5,8.5,,29.7,-236,-225,2,1032.23,28.2,0
"2020-02-16 00:39:35+00",8.1,9.1,,29.9,-259,-242,6,1032.28,28.3,0
"2020-02-16 00:44:35+00",7.7,8.7,,30,-214,-267,5,1032.14,28.3,0
"2020-02-16 00:49:35+00",7.1,8.1,,30,-246,-182,11,1032.04,28.3,0
"2020-02-16 00:54:35+00",7.3,8.3,,30,-248,-190,6,1031.97,28.3,0
"2020-02-16 00:59:35+00",6.7,7.7,,30.1,-170,-250,5,1031.74,28.3,0
"2020-02-16 01:04:35+00",8.0,9.0,,30.1,-139,-310,4,1031.65,28.3,0
"2020-02-16 01:09:35+00",8.7,10.7,,30,-180,-328,-1,1031.58,28.2,0
"2020-02-16 01:14:35+00",7.9,8.9,,30.1,-249,-227,7,1031.55,28.4,0
"2020-02-16 01:19:35+00",7.8,8.8,,30.3,-215,-276,2,1031.45,28.6,0
"2020-02-16 01:24:35+00",7.7,8.7,,30.2,-169,-293,3,1031.28,28.7,0
"2020-02-16 01:29:35+00",6.7,7.7,,29.8,-107,-265,-1,1031.42,28.5,0
"2020-02-16 01:34:35+00",8.6,10.6,,30,-177,-327,-5,1031.28,28.5,0
"2020-02-16 01:39:35+00",9.1,10.1,,30.1,-156,-355,-1,1031.25,28.6,0
"2020-02-16 01:44:35+00",8.4,10.4,,30,-124,-340,-6,1031.13,28.6,0
"2020-02-16 01:49:35+00",9.1,11.1,,30.1,-132,-364,-6,1030.95,28.8,0
"2020-02-16 01:54:35+00",9.0,11.0,,29.9,-124,-366,-13,1030.8,28.8,0
"2020-02-16 01:59:35+00",9.5,10.5,,29.7,-96,-393,-11,1030.65,28.6,0
"2020-02-16 02:04:35+00",8.2,10.2,,29.9,-108,-323,1,1030.67,28.9,0
"2020-02-16 02:09:35+00",8.6,10.6,,29.8,-90,-363,-10,1030.51,29,0
"2020-02-16 02:14:35+00",9.0,11.0,,29.9,-102,-375,-6,1030.53,29,0
"2020-02-16 02:19:35+00",9.7,11.7,,30.1,-152,-388,2,1030.52,29.2,0
"2020-02-16 02:24:35+00",10.4,11.4,,30.4,-196,-403,-4,1030.65,29.4,0
"2020-02-16 02:29:35+00",10.1,12.1,,30.5,-175,-404,7,1030.44,29.7,0
"2020-02-16 02:34:35+00",12.3,14.3,,30.8,-191,-502,-13,1030.26,29.9,0
"2020-02-16 02:39:35+00",12.2,14.2,,31.1,-217,-487,-3,1030.07,30.2,0
"2020-02-16 02:44:35+00",10.7,13.7,,31.2,-150,-440,-4,1030.02,30.4,0
"2020-02-16 02:49:35+00",12.1,14.1,,31.5,-243,-474,-1,1030,30.7,0
"2020-02-16 02:54:35+00",10.4,12.4,,31.5,-219,-403,10,1029.92,30.8,0
"2020-02-16 02:59:35+00",11.8,13.8,,31.7,-249,-441,6,1029.92,30.9,0
"2020-02-16 03:04:35+00",10.7,12.7,,31.9,-267,-393,3,1029.93,31.1,0
"2020-02-16 03:09:35+00",11.4,13.4,,31.9,-292,-419,-8,1029.85,31.2,0
"2020-02-16 03:14:35+00",11.2,14.2,,31.9,-268,-400,-13,1029.7,31.2,0
"2020-02-16 03:19:35+00",11.1,13.1,,31.9,-182,-437,-2,1029.69,31.2,0
"2020-02-16 03:24:35+00",11.3,13.3,,32.1,-222,-430,6,1029.39,31.3,0
"2020-02-16 03:29:35+00",13.8,16.8,,32.2,-299,-526,-5,1029.29,31.5,0
"2020-02-16 03:34:35+00",13.7,15.7,,32.3,-276,-521,-11,1029.29,31.6,0
"2020-02-16 03:39:35+00",13.1,15.1,,32.4,-299,-490,0,1029.23,31.7,0
"2020-02-16 03:44:35+00",12.8,13.8,,32.5,-317,-479,0,1029.15,31.8,0
"2020-02-16 03:49:35+00",11.7,14.7,,32.6,-263,-434,8,1029.19,31.9,0
"2020-02-16 03:54:35+00",11.6,13.6,,32.6,-264,-439,-2,1029.14,31.9,0
"2020-02-16 03:59:35+00",11.0,14.0,,32.6,-246,-415,7,1029.03,31.9,0
"2020-02-16 04:04:35+00",13.0,16.0,,32.8,-273,-510,7,1028.94,32,0
"2020-02-16 04:09:35+00",14.0,16.0,,33,-331,-518,-18,1028.86,32.2,0
"2020-02-16 04:14:35+00",12.7,15.7,,33,-362,-429,5,1028.95,32.3,0
"2020-02-16 04:19:35+00",12.1,14.1,,33.1,-354,-409,13,1028.74,32.4,0
"2020-02-16 04:24:35+00",12.7,14.7,,33.2,-357,-430,-9,1028.64,32.5,0
"2020-02-16 04:29:35+00",11.5,13.5,,33.2,-340,-355,-19,1028.59,32.5,0
"2020-02-16 04:34:35+00",10.7,12.7,,33.3,-378,-301,-17,1028.55,32.6,0
"2020-02-16 04:39:35+00",13.2,15.2,,33.4,-388,-453,-17,1028.5,32.7,0
"2020-02-16 04:44:35+00",11.7,13.7,,33.4,-341,-389,-17,1028.4,32.7,0
"2020-02-16 04:49:35+00",10.5,11.5,,33.4,-283,-368,3,1028.28,32.6,0
"2020-02-16 04:54:35+00",11.1,12.1,,33,-465,-79,18,1028.37,32.6,0
"2020-02-16 04:59:35+00",11.8,12.8,,32.5,-490,-112,16,1028.3,32.4,0
"2020-02-16 05:04:35+00",12.2,14.2,,32.4,-542,-85,-24,1028.29,32.1,0
"2020-02-16 05:09:35+00",11.6,14.6,,32.3,-498,-134,10,1028.23,31.9,0
"2020-02-16 05:14:35+00",12.3,14.3,,32.4,-535,-130,-1,1028.28,31.9,0
"2020-02-16 05:19:35+00",11.7,13.7,,32.5,-520,-131,-9,1028.3,31.8,0
"2020-02-16 05:24:35+00",12.6,14.6,,32.5,-569,-154,-2,1028.28,31.8,0
"2020-02-16 05:29:35+00",14.2,17.2,,32.7,-647,-137,-48,1028.36,31.9,0
"2020-02-16 05:34:35+00",15.7,17.7,,32.8,-700,-188,-61,1028.44,32,0
"2020-02-16 05:39:35+00",13.5,16.5,,32.9,-655,-108,-72,1028.29,32.2,0
"2020-02-16 05:44:35+00",13.5,15.5,,33,-606,-74,-28,1028.33,32.2,0
"2020-02-16 05:49:35+00",14.8,17.8,,33.1,-684,-93,-42,1028.29,32.4,0
"2020-02-16 05:54:35+00",12.6,13.6,,32.9,-590,-162,-13,1028.28,32.4,0
"2020-02-16 05:59:35+00",13.1,14.1,,32.9,-588,-145,-29,1028.26,32.4,0
"2020-02-16 06:04:35+00",12.1,13.1,,32.9,-560,-91,-49,1028.22,32.3,0
"2020-02-16 06:09:35+00",13.3,15.3,,32.9,-635,-94,-75,1028.13,32.3,0
"2020-02-16 06:14:35+00",12.4,14.4,,32.8,-545,-153,4,1027.98,32.2,0
"2020-02-16 06:19:35+00",11.1,12.1,,32.8,-435,-192,-15,1027.92,32.2,0
"2020-02-16 06:24:35+00",11.1,16.1,,32.8,-469,-142,-43,1027.81,32.2,0
"2020-02-16 06:29:35+00",12.7,14.7,,32.9,-492,-261,-52,1027.7,32.3,0
"2020-02-16 06:34:35+00",11.4,13.4,,32.9,-483,-85,-92,1027.74,32.3,0
"2020-02-16 06:39:35+00",11.3,13.3,,33.1,-458,-122,-73,1027.68,32.5,0
"2020-02-16 06:44:35+00",11.9,14.9,,33.1,-471,-156,-68,1027.6,32.5,0
"2020-02-16 06:49:35+00",9.7,10.7,,33.3,-363,-198,-17,1027.51,32.6,0
"2020-02-16 06:54:35+00",12.0,14.0,,33.5,-487,-169,-82,1027.54,32.8,0
"2020-02-16 06:59:35+00",11.4,14.4,,33.5,-440,-280,-51,1027.4,32.9,0
"2020-02-16 07:04:35+00",9.4,10.4,,33.5,-355,-182,-60,1027.36,32.9,0
"2020-02-16 07:09:35+00",9.4,12.4,,33.5,-280,-303,-12,1027.21,32.8,0
"2020-02-16 07:14:35+00",11.5,12.5,,33.6,-481,-181,-125,1027.11,32.9,0
"2020-02-16 07:19:35+00",10.4,12.4,,33.7,-440,-136,-77,1027.27,33,0
"2020-02-16 07:24:35+00",11.6,13.6,,33.8,-468,-202,-92,1027.06,33.1,0
"2020-02-16 07:29:35+00",10.9,11.9,,33.8,-348,-324,-28,1026.82,33.1,0
"2020-02-16 07:34:35+00",10.7,12.7,,34,-422,-175,-51,1026.92,33.3,0
"2020-02-16 07:39:35+00",12.0,14.0,,34.2,-520,-117,-110,1026.8,33.4,0
"2020-02-16 07:44:35+00",12.2,16.2,,34.3,-560,-39,-147,1026.64,33.5,0
"2020-02-16 07:49:35+00",13.2,15.2,,34.3,-596,-78,-147,1026.46,33.6,0
"2020-02-16 07:54:35+00",12.6,13.6,,34.3,-570,-66,-119,1026.45,33.7,0
"2020-02-16 07:59:35+00",11.8,14.8,,34.4,-472,-189,-67,1026.49,33.7,0
"2020-02-16 08:04:35+00",14.4,16.4,,34.6,-684,-11,-201,1026.4,33.8,0
"2020-02-16 08:09:35+00",11.6,13.6,,34.6,-498,-154,-96,1026.14,33.9,0
"2020-02-16 08:14:35+00",11.2,13.2,,34.5,-427,-215,-54,1025.93,33.8,0
"2020-02-16 08:19:35+00",11.3,13.3,,34.4,-580,43,-143,1025.95,33.8,0
"2020-02-16 08:24:35+00",12.4,14.4,,34.4,-618,13,-150,1025.78,33.8,0
"2020-02-16 08:29:35+00",15.5,17.5,,34.6,-826,134,-263,1025.66,33.8,0
"2020-02-16 08:34:35+00",16.7,18.7,,34.8,-825,46,-225,1025.61,33.9,0
"2020-02-16 08:39:35+00",16.2,18.2,,34.8,-825,76,-259,1025.45,34.1,0
"2020-02-16 08:44:35+00",15.5,17.5,,34.8,-833,150,-275,1025.42,34.1,0
"2020-02-16 08:49:35+00",15.6,18.6,,34.7,-760,-8,-232,1025.25,34.1,0
"2020-02-16 08:54:35+00",15.1,18.1,,34.8,-784,88,-301,1025.15,34.1,0
"2020-02-16 08:59:35+00",13.1,15.1,,34.7,-636,-28,-202,1025.09,34.1,0
"2020-02-16 09:04:35+00",13.6,16.6,,34.7,-612,-93,-181,1025.16,34.1,0
"2020-02-16 09:09:35+00",14.2,16.2,,34.9,-763,107,-270,1025.02,34.2,0
"2020-02-16 09:14:35+00",13.6,15.6,,35,-680,-8,-208,1025,34.2,0
"2020-02-16 09:19:35+00",15.6,17.6,,35.1,-769,31,-250,1024.9,34.3,0
"2020-02-16 09:24:35+00",14.8,16.8,,35,-695,-60,-208,1024.89,34.3,0
"2020-02-16 09:29:35+00",14.6,16.6,,35,-704,11,-210,1025.07,34.4,0
"2020-02-16 09:34:35+00",12.3,14.3,,35,-542,-102,-120,1025.13,34.4,0
"2020-02-16 09:39:35+00",13.9,17.9,,34.9,-634,-68,-163,1025.16,34.3,0
"2020-02-16 09:44:35+00",14.6,17.6,,34.9,-694,1,-189,1025.08,34.3,0
"2020-02-16 09:49:35+00",13.7,15.7,,34.9,-740,139,-244,1025.03,34.3,0
"2020-02-16 09:54:35+00",12.5,14.5,,34.8,-609,18,-184,1024.87,34.2,0
"2020-02-16 09:59:35+00",12.3,14.3,,34.8,-702,173,-235,1024.97,34.2,0
"2020-02-16 10:04:35+00",13.7,15.7,,34.8,-760,182,-265,1025.12,34.1,0
"2020-02-16 10:09:35+00",13.6,15.6,,34.8,-758,216,-292,1025.18,34.1,0
"2020-02-16 10:14:35+00",12.8,15.8,,34.8,-622,-13,-194,1025.01,34,0
"2020-02-16 10:19:35+00",11.5,13.5,,34.8,-589,30,-202,1024.9,34.1,0
"2020-02-16 10:24:35+00",10.9,11.9,,34.7,-560,44,-172,1025.16,34.1,0
"2020-02-16 10:29:35+00",12.2,14.2,,34.8,-681,149,-244,1025.34,34,0
"2020-02-16 10:34:35+00",12.3,14.3,,34.9,-584,-46,-165,1025.16,34.1,0
"2020-02-16 10:39:35+00",13.2,15.2,,34.9,-781,251,-316,1025.21,34.1,0
"2020-02-16 10:44:35+00",13.1,15.1,,34.9,-749,192,-278,1025.2,34.1,0
"2020-02-16 10:49:35+00",13.5,15.5,,35,-771,203,-275,1025.28,34.2,0
"2020-02-16 10:54:35+00",14.6,16.6,,35.1,-890,335,-357,1025.31,34.3,0
"2020-02-16 10:59:35+00",12.7,14.7,,35.1,-553,-159,-116,1025.24,34.3,0
"2020-02-16 11:04:35+00",11.6,14.6,,35,-423,-296,-57,1025,34.3,0
"2020-02-16 11:09:35+00",12.1,13.1,,34.9,-448,-266,-91,1024.97,34.3,0
"2020-02-16 11:14:35+00",11.4,12.4,,34.8,-388,-287,-71,1024.96,34.2,0
"2020-02-16 11:19:35+00",10.8,12.8,,34.8,-390,-255,-68,1025.01,34.1,0
"2020-02-16 11:24:35+00",11.7,13.7,,35,-411,-286,-57,1025.01,34.2,0
"2020-02-16 11:29:35+00",12.8,14.8,,35.2,-416,-349,-63,1024.92,34.3,0
"2020-02-16 11:34:35+00",13.4,16.4,,35.5,-491,-265,-133,1024.79,34.6,0
"2020-02-16 11:39:35+00",11.7,13.7,,35.6,-384,-316,-52,1024.84,34.7,0
"2020-02-16 11:44:35+00",11.8,14.8,,35.7,-369,-329,-56,1024.75,34.8,0
"2020-02-16 11:49:35+00",11.8,13.8,,35.9,-394,-297,-67,1024.65,34.9,0
"2020-02-16 11:54:35+00",11.2,13.2,,35.8,-353,-315,-44,1024.72,35,0
"2020-02-16 11:59:35+00",10.9,11.9,,35.9,-403,-220,-99,1024.66,35,0
"2020-02-16 12:04:35+00",11.6,12.6,,36,-448,-242,-79,1024.64,35.1,0
"2020-02-16 12:09:35+00",11.0,13.0,,36.1,-362,-300,-46,1024.65,35.3,0
"2020-02-16 12:14:35+00",10.9,12.9,,36.2,-380,-305,-35,1024.69,35.4,0
"2020-02-16 12:19:35+00",10.1,12.1,,36.3,-338,-278,-32,1024.66,35.5,0
"2020-02-16 12:24:35+00",11.4,12.4,,36.6,-441,-228,-91,1024.49,35.7,0
"2020-02-16 12:29:35+00",11.7,13.7,,36.7,-541,-84,-168,1024.67,36,0
"2020-02-16 12:34:35+00",14.8,16.8,,37,-1049,553,-533,1024.68,36.2,0
"2020-02-16 12:39:35+00",15.1,18.1,,37.3,-1199,751,-643,1024.73,36.5,0
"2020-02-16 12:44:35+00",12.9,15.9,,37.3,-932,472,-465,1024.7,36.7,0
"2020-02-16 12:49:35+00",14.6,16.6,,37.4,-961,420,-463,1024.67,36.9,0
"2020-02-16 12:54:35+00",14.5,15.5,,37.5,-1100,662,-581,1024.58,37,0
"2020-02-16 12:59:35+00",14.7,16.7,,37.6,-993,486,-479,1024.56,37.1,0
"2020-02-16 13:04:35+00",14.0,17.0,,37.6,-950,436,-440,1024.61,37.2,0
"2020-02-16 13:09:35+00",14.5,17.5,,37.8,-1097,689,-577,1024.58,37.4,0
"2020-02-16 13:14:35+00",15.3,17.3,,37.9,-1393,1102,-806,1024.46,37.5,0
"2020-02-16 13:19:35+00",14.4,17.4,,37.9,-1077,653,-551,1024.54,37.6,0
"2020-02-16 13:24:35+00",16.1,20.1,,38,-1499,1215,-912,1024.38,37.8,0
"2020-02-16 13:29:35+00",16.3,18.3,,38.1,-1804,1715,-1197,1024.44,38,0
"2020-02-16 13:34:35+00",16.2,19.2,,38.2,-1647,1490,-1038,1024.57,38.1,0
"2020-02-16 13:39:35+00",18.0,21.0,,38.2,-2248,2363,-1567,1024.48,38.1,0
"2020-02-16 13:44:35+00",14.0,17.0,,38.2,-1238,989,-728,1024.29,38.3,0
"2020-02-16 13:49:35+00",13.4,15.4,,38.5,-1334,1186,-840,1024.18,38.6,0
"2020-02-16 13:54:35+00",15.5,18.5,,38.7,-2097,2293,-1526,1023.98,39.1,0
"2020-02-16 13:59:35+00",14.3,16.3,,38.8,-1661,1670,-1091,1023.93,39.1,0
"2020-02-16 14:04:35+00",14.0,17.0,,38.9,-1675,1682,-1116,1024.03,39.2,0
"2020-02-16 14:09:35+00",15.5,18.5,,39,-2115,2355,-1477,1024.11,39.3,0
"2020-02-16 14:14:35+00",14.2,16.2,,39.2,-1736,1792,-1147,1023.96,39.6,0
"2020-02-16 14:19:35+00",17.9,20.9,,39.2,-2280,2441,-1590,1023.79,39.6,0
"2020-02-16 14:24:35+00",14.1,17.1,,39.1,-1692,1725,-1115,1023.5,39.6,0
"2020-02-16 14:29:35+00",15.2,17.2,,39.2,-2156,2427,-1529,1023.41,39.7,0
"2020-02-16 14:34:35+00",14.6,17.6,,39.2,-1966,2163,-1337,1023.46,40,0
"2020-02-16 14:39:35+00",15.6,19.6,,39.4,-2216,2483,-1546,1023.44,40.2,0
"2020-02-16 14:44:35+00",17.9,20.9,,39.5,-2308,2494,-1557,1023.45,40.6,7.8
"2020-02-16 14:49:35+00",16.5,19.5,,39.6,-2019,2101,-1324,1023.26,40.9,0.6
"2020-02-16 14:54:35+00",16.8,19.8,,39.7,-2502,2893,-1761,1022.94,41.1,10.8
"2020-02-16 14:59:35+00",16.7,19.7,,39.9,-2555,2927,-1789,1022.81,41.7,67.1
"2020-02-16 15:04:35+00",14.0,16.0,,40.1,-1837,1934,-1162,1022.74,42.2,44.3
"2020-02-16 15:09:35+00",14.9,16.9,,39.9,-1995,2108,-1301,1022.7,42.5,5.5
"2020-02-16 15:14:35+00",15.5,17.5,,39.9,-2324,2732,-1682,1022.63,42.4,58.2
"2020-02-16 15:19:35+00",16.5,18.5,,40.1,-2305,2636,-1636,1022.56,42.5,63.7
"2020-02-16 15:24:35+00",15.9,17.9,,40.3,-2084,2314,-1474,1022.59,42.4,61.5
"2020-02-16 15:29:35+00",15.5,17.5,,40.5,-2290,2653,-1674,1022.49,42.6,60.2
"2020-02-16 15:34:35+00",15.0,18.0,,40.7,-1910,2084,-1331,1022.32,42.7,65.9
"2020-02-16 15:39:35+00",14.7,16.7,,40.6,-2007,2242,-1397,1022.33,42.7,56
"2020-02-16 15:44:35+00",13.7,14.7,,41,-1690,1750,-1154,1022.07,42.8,27.3
"2020-02-16 15:49:35+00",11.5,13.5,,41.1,-1122,962,-663,1021.92,43,54
"2020-02-16 15:54:35+00",12.2,14.2,,41.2,-1288,1179,-790,1021.88,43.6,130.9
"2020-02-16 15:59:35+00",11.1,13.1,,41.2,-1175,1084,-674,1021.7,44,84.4
"2020-02-16 16:04:35+00",10.7,12.7,,41.9,-1058,911,-559,1021.65,44.8,126.3
"2020-02-16 16:09:35+00",9.8,10.8,,41.8,-924,743,-464,1021.59,45.9,85
"2020-02-16 16:14:35+00",10.0,12.0,,41.9,-566,225,-143,1021.48,46.8,51.4
"2020-02-16 16:19:35+00",10.7,12.7,,42.1,-1031,880,-602,1021.42,47,82.7
"2020-02-16 16:24:35+00",7.7,9.7,,42.2,-555,351,-248,1021.33,46.4,103.3
"2020-02-16 16:29:35+00",7.5,10.5,,42.7,-490,293,-130,1021.29,47.1,81.6
"2020-02-16 16:34:35+00",9.0,12.0,,43,-1004,957,-624,1021.22,47.8,57.4
"2020-02-16 16:39:35+00",10.3,11.3,,43.1,-577,349,-119,1021.23,48.2,55.9
"2020-02-16 16:44:35+00",10.1,12.1,,43.3,-581,403,-128,1021.08,48.4,105.4
"2020-02-16 16:49:35+00",7.4,8.4,,43.3,-449,316,-124,1020.93,48.6,43.3
"2020-02-16 16:54:35+00",7.3,8.3,,43.5,-398,211,-93,1020.84,48.7,38.1
"2020-02-16 16:59:35+00",8.9,9.9,,43.5,-493,352,-137,1020.74,49.1,109.7
"2020-02-16 17:04:35+00",8.2,10.2,,43.8,-515,335,-149,1020.66,49.5,144.5
"2020-02-16 17:09:35+00",6.8,8.8,,44.1,-482,469,-174,1020.41,49.8,89.7
"2020-02-16 17:14:35+00",9.0,11.0,,44.1,-548,399,-184,1020.29,50.1,62.2
"2020-02-16 17:19:35+00",8.9,10.9,,44.3,-602,498,-210,1020.34,50,34.1
"2020-02-16 17:24:35+00",8.8,9.8,,44.2,-579,438,-175,1020.23,49.7,5.8
"2020-02-16 17:29:35+00",7.3,9.3,,44.3,-496,341,-158,1020.34,49.5,23.7
"2020-02-16 17:34:35+00",6.8,7.8,,44.5,-429,189,-143,1020.18,49.7,0
"2020-02-16 17:39:35+00",8.1,10.1,,44.7,-229,-119,-119,1020.12,48.8,0
"2020-02-16 17:44:35+00",6.6,8.6,,44.8,-23,-260,-33,1019.91,47.1,0
"2020-02-16 17:49:35+00",7.6,8.6,,44.7,-196,-184,-70,1019.92,46.5,2
"2020-02-16 17:54:35+00",5.6,6.6,,44.7,-248,-49,-48,1019.87,46.6,23.2
"2020-02-16 17:59:35+00",8.4,9.4,,44.8,-231,-258,-39,1019.75,47.1,48.5
"2020-02-16 18:04:35+00",7.4,8.4,,45.2,-228,-210,2,1019.79,47.5,75.6
"2020-02-16 18:09:35+00",7.6,9.6,,45.2,-405,78,-119,1019.7,48,82.2
"2020-02-16 18:14:35+00",8.4,10.4,,45.4,-412,18,-127,1019.74,48.3,56.1
"2020-02-16 18:19:35+00",7.6,9.6,,45.4,-412,55,-126,1019.65,48.6,23
"2020-02-16 18:24:35+00",8.4,9.4,,45.5,-402,1,-121,1019.5,48.9,32.7
"2020-02-16 18:29:35+00",8.4,9.4,,45.7,-310,-181,-7,1019.59,48.7,56.1
"2020-02-16 18:34:35+00",9.3,11.3,,46,-208,-334,-19,1019.28,48.7,71.2
"2020-02-16 18:39:35+00",9.3,11.3,,46,-248,-334,-1,1019.29,48.2,84.6
"2020-02-16 18:44:35+00",10.1,11.1,,46,-401,-178,-100,1019.32,48.3,50.5
"2020-02-16 18:49:35+00",8.6,12.6,,46.4,-171,-321,16,1019.2,48.6,28.2
"2020-02-16 18:54:35+00",9.7,10.7,,46.3,-253,-329,-19,1019.08,48.5,8.6
"2020-02-16 18:59:35+00",9.5,10.5,,46.3,-433,-49,-159,1019.06,48.2,0
"2020-02-16 19:04:35+00",9.5,10.5,,46.1,-429,-53,-155,1018.99,48,0
"2020-02-16 19:09:35+00",9.8,10.8,,45.9,-459,53,-222,1018.92,47.3,0
"2020-02-16 19:14:35+00",9.7,11.7,,45.9,-403,85,-249,1018.97,46.9,0
"2020-02-16 19:19:35+00",8.8,11.8,,45.3,-298,64,-237,1018.93,46.2,0
"2020-02-16 19:24:35+00",12.2,15.2,,44.5,-949,893,-764,1018.97,45.4,0
"2020-02-16 19:29:35+00",10.2,12.2,,43.6,-786,835,-695,1019.07,44.3,0
"2020-02-16 19:34:35+00",9.0,12.0,,43.5,-1021,1220,-857,1019.05,44.1,0
"2020-02-16 19:39:35+00",11.1,14.1,,43.4,-1245,1471,-1046,1018.88,43.9,0
"2020-02-16 19:44:35+00",8.8,12.8,,43.3,-1087,1352,-944,1018.86,43.9,0
"2020-02-16 19:49:35+00",11.9,14.9,,43,-1220,1461,-1086,1018.76,43.7,0
"2020-02-16 19:54:35+00",12.3,16.3,,43.2,-1346,1598,-1159,1018.77,43.9,0
"2020-02-16 19:59:35+00",13.8,15.8,,43,-1602,1926,-1371,1018.73,43.8,0
"2020-02-16 20:04:35+00",10.1,13.1,,43.2,-1374,1662,-1140,1018.74,43.8,0
"2020-02-16 20:09:35+00",13.3,17.3,,43.3,-1830,2241,-1540,1018.79,43.9,0
"2020-02-16 20:14:35+00",13.4,15.4,,43.1,-1819,2199,-1494,1018.9,43.7,0
"2020-02-16 20:19:35+00",12.0,14.0,,43,-1764,2186,-1452,1019.06,43.5,0
"2020-02-16 20:24:35+00",11.6,12.6,,43,-1646,1904,-1275,1019.19,43.4,0
"2020-02-16 20:29:35+00",11.6,13.6,,43,-1744,2127,-1395,1019.14,43.6,0
"2020-02-16 20:34:35+00",13.0,15.0,,43.4,-2054,2493,-1638,1019.23,44,0
"2020-02-16 20:39:35+00",11.6,12.6,,43.6,-1750,2024,-1320,1019.12,44.3,0
"2020-02-16 20:44:35+00",12.2,15.2,,44.1,-1658,1828,-1207,1019.08,44.8,0
"2020-02-16 20:49:35+00",12.2,14.2,,44.1,-1540,1600,-1088,1018.96,44.9,0
"2020-02-16 20:54:35+00",11.8,12.8,,44.3,-1433,1460,-973,1019.04,45.2,0
"2020-02-16 20:59:35+00",12.0,13.0,,44.2,-1406,1468,-1036,1018.94,45.2,0
"2020-02-16 21:04:35+00",13.2,16.2,,44.2,-1729,1852,-1276,1018.89,45.1,0
"2020-02-16 21:09:35+00",13.4,15.4,,44.2,-1646,1711,-1200,1018.96,44.9,0
"2020-02-16 21:14:35+00",13.5,14.5,,44.3,-1587,1594,-1144,1018.95,44.8,0
"2020-02-16 21:19:35+00",12.4,14.4,,44.2,-1557,1629,-1135,1018.96,44.7,0
"2020-02-16 21:24:35+00",11.2,13.2,,44.3,-1151,1096,-817,1018.77,44.6,0
"2020-02-16 21:29:35+00",12.1,14.1,,44.1,-1273,1261,-933,1018.76,44.4,0
"2020-02-16 21:34:35+00",13.1,16.1,,43.9,-1492,1634,-1177,1018.88,44.1,0
"2020-02-16 21:39:35+00",13.1,14.1,,43.8,-1435,1566,-1145,1018.85,43.8,0
"2020-02-16 21:44:35+00",11.8,13.8,,43.7,-1475,1675,-1173,1018.87,43.7,0
"2020-02-16 21:49:35+00",10.5,12.5,,43.7,-1189,1242,-896,1018.99,43.8,0
"2020-02-16 21:54:35+00",10.8,13.8,,43.7,-1400,1587,-1091,1018.91,43.9,0
"2020-02-16 21:59:35+00",9.9,11.9,,43.6,-1186,1293,-917,1018.9,43.8,0
"2020-02-16 22:04:35+00",10.2,12.2,,43.6,-1348,1438,-993,1018.94,43.8,0
"2020-02-16 22:09:35+00",11.3,12.3,,43.5,-1651,1877,-1221,1018.88,43.7,0
"2020-02-16 22:14:35+00",10.4,12.4,,43.3,-1331,1370,-948,1018.99,43.4,0
"2020-02-16 22:19:35+00",10.4,11.4,,42.9,-1065,960,-711,1019.08,42.9,0
"2020-02-16 22:24:35+00",10.0,11.0,,42.6,-973,811,-619,1019.11,42.3,0
"2020-02-16 22:29:35+00",9.5,10.5,,42.5,-1183,1214,-834,1019.24,41.9,0
"2020-02-16 22:34:35+00",9.2,10.2,,42.2,-690,440,-430,1019.35,41.5,0
"2020-02-16 22:39:35+00",9.6,10.6,,42,-689,397,-405,1019.32,41.1,0
"2020-02-16 22:44:35+00",9.8,10.8,,41.8,-752,492,-462,1019.35,40.8,0
"2020-02-16 22:49:35+00",9.5,10.5,,41.6,-856,773,-621,1019.26,40.6,0
"2020-02-16 22:54:35+00",9.9,10.9,,41.5,-632,318,-377,1019.4,40.3,0
"2020-02-16 22:59:35+00",9.5,10.5,,41.4,-584,269,-333,1019.51,40.3,0
"2020-02-16 23:04:35+00",9.8,10.8,,41.2,-751,560,-506,1019.48,40.5,0
"2020-02-16 23:09:35+00",10.2,11.2,,41.2,-693,399,-426,1019.58,40.4,0
"2020-02-16 23:14:35+00",9.8,10.8,,41.2,-771,578,-517,1019.45,40.5,0
"2020-02-16 23:19:35+00",9.9,11.9,,41.2,-953,882,-689,1019.59,40.4,0
"2020-02-16 23:24:35+00",10.0,11.0,,41.3,-730,499,-476,1019.69,40.5,0
"2020-02-16 23:29:35+00",10.0,11.0,,41.2,-970,838,-647,1019.8,40.5,0
"2020-02-16 23:34:35+00",9.9,10.9,,41.2,-830,609,-524,1019.7,40.5,0
"2020-02-16 23:39:35+00",9.1,10.1,,41,-621,351,-375,1019.47,40.4,0
"2020-02-16 23:44:35+00",9.3,10.3,,40.9,-559,267,-333,1019.55,40.2,0
"2020-02-16 23:49:35+00",8.4,9.4,,40.7,-463,123,-233,1019.57,39.8,0
"2020-02-16 23:54:35+00",8.1,9.1,,40.7,-546,230,-260,1019.62,39.5,0
"2020-02-16 23:59:35+00",7.3,8.3,,40.6,-487,194,-225,1019.61,39.2,0
